This is the latest recevied weather packets stored in our database for station/object DB5ZQ. If no packets are shown the sender has not sent any weather packets the latest 10 day(s).
| Time | Temp. | Humidity | Pressure | Rain* | Wind** | Luminosity | Snow |
|---|---|---|---|---|---|---|---|
| 1788010463 | 26.67° C | 41% | 1009.9 hPa | 0 mm | - | - | - |
| 1788010162 | 26.11° C | 41% | 1010 hPa | 0 mm | - | - | - |
| 1788009862 | 26.11° C | 43% | 1010 hPa | 0 mm | - | - | - |
| 1788009562 | 26.11° C | 43% | 1010.1 hPa | 0 mm | - | - | - |
| 1788009262 | 26.11° C | 42% | 1010.2 hPa | 0 mm | - | - | - |
| 1788008961 | 26.67° C | 41% | 1010.1 hPa | 0 mm | - | - | - |
| 1788008661 | 26.67° C | 42% | 1010.2 hPa | 0 mm | - | - | - |
| 1788008361 | 26.67° C | 40% | 1010.2 hPa | 0 mm | - | - | - |
| 1788008061 | 26.67° C | 43% | 1010.2 hPa | 0 mm | - | - | - |
| 1788007760 | 26.11° C | 44% | 1010.1 hPa | 0 mm | - | - | - |
| 1788007460 | 25.56° C | 45% | 1010.2 hPa | 0 mm | - | - | - |
| 1788007160 | 25.56° C | 43% | 1010.3 hPa | 0 mm | - | - | - |
| 1788006859 | 26.11° C | 44% | 1010.3 hPa | 0 mm | - | - | - |
| 1788006559 | 25.56° C | 47% | 1010.3 hPa | 0 mm | - | - | - |
| 1788006259 | 25° C | 47% | 1010.5 hPa | 0 mm | - | - | - |
| 1788005958 | 25° C | 47% | 1010.5 hPa | 0 mm | - | - | - |
| 1788005658 | 25° C | 47% | 1010.5 hPa | 0 mm | - | - | - |
| 1788005358 | 24.44° C | 48% | 1010.5 hPa | 0 mm | - | - | - |
| 1788005058 | 24.44° C | 49% | 1010.5 hPa | 0 mm | - | - | - |
| 1788004757 | 23.89° C | 51% | 1010.6 hPa | 0 mm | - | - | - |
| 1788004457 | 24.44° C | 50% | 1010.7 hPa | 0 mm | - | - | - |
| 1788004157 | 24.44° C | 49% | 1010.6 hPa | 0 mm | - | - | - |
| 1788003857 | 25° C | 49% | 1010.7 hPa | 0 mm | - | - | - |
| 1788003556 | 25° C | 49% | 1010.6 hPa | 0 mm | - | - | - |
| 1788003256 | 25° C | 49% | 1010.7 hPa | 0 mm | - | - | - |
* Rain latest hour (hover to see other rain measurements)
** Current wind speed in m/s (hover to see current wind gust speed)